ヒル彗星

P/2007 V2 ( Hill )

English version
Home page
Updated on April 20, 2008

---------------------------------------------------------------------

・ プロフィール

発見日 2007年11月9日
発見光度 19等
発見者 R. E. Hill (Mt. Lemmon Survey)

・ 写真集

・ 軌道要素

T 2007 July 30.9320 TT                                  MPC
q   2.774731             (2000.0)            P               Q
n   0.1201318      Peri.  278.5245      +0.9480005      -0.3154228
a   4.067842       Node    99.8701      +0.3063322      +0.8680843
e   0.317886       Incl.    2.4706      +0.0863467      +0.3833251
P   8.20
From 59 observations 2007 Oct. 14-Dec. 8.

・ 光度変化

        m1 = 13.5 + 5 logΔ + 10.0 log r

---------------------------------------------------------------------

軌道要素はM.P.E.C. 2007-X46に掲載されたものです。
光度グラフはComet for Windowsで作成したものです。

---------------------------------------------------------------------

Copyright(C) Seiichi Yoshida (comet@aerith.net). All rights reserved.